Vorticity
nan nan nan nan nan nan nan nan nan nan nan nan nan nan nan nan nan nan nan nan nan nan nan nan nan nan nan nan nan nan nan nan nan nan nan nan nan nan nan nan nan nan nan
nan 9 11 9 10 9 9 8 9 9 9 8 9 8 8 8 9 9 8 7 11 12 10 6 10 10 10 7 8 11 9 12 12 10 9 9 9 10 10 8 10 11 nan
nan 9 11 10 8 8 10 8 7 8 9 9 9 10 9 9 8 8 9 9 8 12 13 8 11 10 9 9 7 10 11 11 12 10 8 9 12 10 9 10 8 7 nan
nan 16 11 12 13 12 11 10 9 9 8 10 11 10 10 11 11 10 10 10 10 11 11 13 14 13 13 11 9 11 9 9 10 8 9 9 10 10 9 10 8 8 nan
nan 10 10 10 9 11 11 14 10 11 11 8 11 14 13 11 12 14 12 11 12 11 10 10 8 16 13 11 14 16 12 13 12 8 8 11 11 11 11 10 9 8 nan
nan 5 5 7 9 7 8 8 4 7 9 7 7 10 9 12 13 13 16 13 10 10 10 9 8 6 6 9 10 10 11 13 12 13 14 9 10 13 13 10 7 8 nan
nan 7 9 7 9 9 10 7 8 9 9 11 10 10 12 13 10 9 12 12 12 13 10 8 8 7 6 5 7 5 7 8 9 13 14 12 11 10 12 10 8 10 nan
nan 10 11 12 11 10 10 11 11 10 11 10 11 11 13 15 10 11 10 9 15 14 12 6 10 11 8 6 7 5 6 4 11 19 12 12 10 9 13 13 9 7 nan
nan 8 9 10 10 9 10 12 12 9 11 13 10 11 14 13 7 7 8 11 15 14 13 11 11 12 11 5 8 9 8 5 8 11 9 9 7 7 6 9 15 11 nan
nan 8 9 10 8 10 10 12 12 10 11 12 14 15 11 12 12 8 7 10 14 12 12 13 10 14 10 6 6 9 8 9 7 5 5 7 9 6 7 8 10 14 nan
nan 11 9 8 9 10 10 11 10 10 12 14 17 14 13 13 20 15 6 8 11 11 11 11 15 16 9 4 7 16 11 12 8 7 8 8 10 9 11 10 11 13 nan
nan 9 9 10 11 9 10 12 11 14 11 9 14 15 16 13 17 16 9 6 7 15 11 9 17 13 10 8 11 16 11 5 6 9 10 11 12 11 10 9 9 10 nan
nan 10 9 9 10 10 8 11 11 12 11 11 10 10 14 16 12 9 8 10 12 10 14 19 17 10 4 10 15 8 3 3 8 10 11 11 11 12 8 8 9 7 nan
nan 9 11 12 11 8 10 9 10 11 10 10 10 11 12 11 6 6 11 14 13 11 15 17 10 8 8 8 9 9 6 8 9 11 12 11 9 8 10 9 9 9 nan
nan 11 12 10 10 9 10 11 12 10 9 8 9 9 10 11 10 8 8 7 11 15 11 11 11 10 8 8 10 9 7 9 10 11 12 9 10 9 12 10 10 11 nan
nan 13 10 9 11 11 9 13 13 9 9 7 8 6 8 6 4 11 11 7 17 17 5 11 11 10 9 9 9 9 9 9 12 11 10 9 10 11 11 11 10 11 nan
nan 11 10 11 10 10 11 8 11 15 14 9 10 12 13 1 3 11 15 17 18 14 11 13 11 10 10 9 9 9 9 10 11 10 11 10 10 13 10 10 10 10 nan
nan 11 8 10 10 9 10 13 10 10 11 14 18 10 7 14 11 15 16 17 16 10 11 13 12 13 12 11 10 10 9 10 10 12 11 11 10 9 9 11 11 11 nan
nan 11 8 10 11 13 10 11 11 10 10 12 12 11 5 10 21 21 13 10 12 13 11 9 12 11 12 12 11 13 17 14 11 10 10 13 10 9 11 11 11 12 nan
nan 10 7 10 11 11 14 10 9 10 11 11 12 11 9 11 15 16 12 10 14 17 15 11 11 12 12 12 11 9 14 16 12 11 12 8 10 14 12 13 12 12 nan
nan 8 12 12 12 12 10 9 10 11 12 11 12 10 10 12 11 10 11 12 11 11 12 13 16 17 12 11 10 10 10 11 12 12 11 8 8 11 12 14 14 11 nan
nan 12 12 12 11 11 12 13 12 11 11 11 12 8 10 15 13 11 12 10 11 12 11 10 11 12 17 17 12 11 11 10 10 11 10 9 9 7 12 13 12 10 nan
nan 12 12 12 10 10 13 13 12 12 12 11 12 12 12 12 12 11 11 11 12 11 11 11 11 10 11 13 17 15 13 12 12 11 11 9 9 10 10 11 10 10 nan
nan 11 12 12 10 11 12 12 12 12 13 13 12 12 12 12 11 11 12 12 11 12 12 11 11 10 9 9 10 13 18 18 15 13 12 10 9 9 11 11 10 11 nan
nan 11 10 11 12 12 12 12 12 13 12 12 12 12 12 11 11 12 11 12 12 12 12 13 11 10 10 10 12 11 9 10 14 19 17 12 11 9 8 10 10 9 nan
nan nan nan nan nan nan nan nan nan nan nan nan nan nan nan nan nan nan nan nan nan nan nan nan nan nan nan nan nan nan nan nan nan nan nan nan nan nan nan nan nan nan nan
CAPE
2413 2520 2624 2643 2791 2854 2726 2864 2877 2786 3162 3286 3432 3590 3537 3226 3377 3096 3805 3939 3088 2622 1818 1097 830 211 225 102 0 6 0 0 0 2 1 8 20 48 14 33 29 15 0
2548 3402 2957 3323 3241 2886 2929 2713 3053 3340 3377 3624 3477 3285 3396 3423 3854 4030 3280 2430 3344 2764 1667 1012 1008 773 395 169 1 3 0 31 10 1 3 1 31 54 41 26 33 9 3
2931 2793 4049 4142 4096 4168 4284 4212 4211 4072 4022 3637 3926 4206 4139 3827 3736 3426 3403 3348 2777 2839 1303 972 1329 906 531 0 0 0 0 7 6 0 4 20 50 55 52 64 17 0 0
3122 3131 3684 3647 3713 3596 4235 4086 4222 4399 4198 4252 4306 4375 4109 3837 3587 3385 2891 2946 3246 2504 1587 1042 1093 458 233 0 0 0 0 18 18 0 0 10 27 50 68 28 1 0 0
3328 3027 2913 2902 2745 2827 2693 3506 3277 3459 3408 3019 3329 4054 4062 4076 3208 2644 2680 1958 2421 2181 1900 1329 14 0 0 0 0 0 0 1 34 10 2 6 10 15 46 3 0 0 0
1944 1144 1016 824 505 925 1514 1578 2080 2438 2609 2516 2162 2534 2217 3123 756 845 734 2361 1905 1868 1096 0 0 0 0 0 0 0 0 0 20 50 3 18 33 55 27 0 0 0 0
1008 437 518 529 802 923 1094 1695 1768 2140 2503 2451 2692 2444 2878 3687 581 634 76 396 1657 2260 1000 51 0 0 0 0 0 0 0 0 0 0 0 12 13 42 44 10 0 0 0
1343 1150 1120 1376 1504 1445 1634 1791 1645 1502 2017 2420 3217 3394 3759 846 153 162 142 1046 1624 2035 1209 17 19 0 0 0 0 0 0 0 0 0 0 0 0 1 14 37 3 0 0
505 657 852 1286 1421 1771 1835 1855 1931 1641 1981 2515 2778 2788 3091 1266 211 101 0 1511 2483 1887 1458 73 0 0 0 0 0 0 0 0 0 0 0 0 0 0 0 0 23 25 0
442 470 1014 1112 1386 1271 1743 1678 1692 1706 1827 2287 2678 2893 2594 2545 303 25 0 812 1700 805 584 395 0 0 0 0 0 0 0 0 0 0 0 0 0 0 0 6 8 21 19
100 384 459 739 1031 1023 1267 1723 1922 1990 1810 2768 2758 2814 2734 2641 2409 29 2 228 1082 552 82 7 0 0 0 0 0 0 0 0 0 0 0 0 0 0 5 0 3 22 29
0 67 241 433 292 599 900 1241 1265 1786 1856 1586 1993 1982 1837 2240 25 2 2 1 0 50 16 15 9 0 0 0 0 0 0 0 0 0 5 1 3 16 2 0 0 20 45
0 34 135 242 677 970 604 890 567 859 862 1487 497 826 1018 1911 13 1 1 1 1 1 0 75 0 0 0 0 0 0 0 0 0 3 16 13 1 0 0 0 3 0 39
123 221 413 513 490 923 366 288 388 346 162 200 551 130 209 286 1 0 1 6 0 2 0 0 0 0 0 0 0 0 0 0 0 3 13 0 0 0 0 1 0 17 19
181 303 266 139 284 444 514 302 295 204 0 0 1 0 29 25 5 3 1 3 1 2 0 0 0 0 0 0 0 0 0 0 0 11 0 0 0 0 7 11 18 23 22
492 76 53 72 61 162 219 218 0 0 0 0 1 0 0 0 2 1 1 1 1 0 0 0 0 0 0 0 0 0 0 0 1 3 0 0 0 3 0 7 12 35 20
311 22 3 1 6 128 109 29 17 3 0 0 0 0 1 0 2 0 1 0 1 1 3 1 0 0 0 0 0 0 0 0 1 9 0 0 0 0 0 4 0 12 39
3 0 0 0 0 0 0 0 0 2 8 10 2 0 0 0 0 1 0 0 1 2 3 3 0 0 0 0 0 0 0 0 3 13 0 0 0 0 0 3 0 8 23
0 0 0 0 0 0 3 6 11 2 3 3 7 3 0 0 0 1 0 0 4 2 3 6 0 0 0 0 0 0 2 0 0 0 0 0 0 0 0 1 0 0 3
9 0 0 0 1 0 0 1 0 0 6 13 12 10 0 0 0 3 2 1 2 2 3 6 1 1 1 0 0 0 0 0 0 0 0 0 0 0 0 7 0 0 0
0 0 0 0 0 3 0 0 0 7 9 15 16 4 0 1 3 5 5 2 1 1 1 1 0 1 2 1 0 0 0 0 0 0 0 0 0 0 0 0 0 0 0
0 0 0 0 0 0 2 4 9 9 14 14 8 7 0 5 6 5 6 5 4 3 3 2 2 0 0 1 0 0 0 0 0 0 0 0 0 0 0 0 0 0 0
0 0 0 0 0 0 5 9 9 12 11 9 10 8 7 7 6 5 5 6 5 4 4 4 7 3 0 0 0 4 2 0 0 0 0 0 0 0 0 0 0 0 0
0 0 0 1 0 5 8 6 7 6 10 8 8 8 8 7 6 5 4 3 3 3 4 4 3 8 1 1 0 0 0 1 0 0 0 0 0 0 0 0 0 0 0
0 0 0 4 1 9 7 8 7 8 7 7 7 6 5 4 3 4 3 4 2 1 5 1 1 0 2 5 0 0 0 2 0 0 0 0 0 0 0 0 0 0 0
0 0 0 1 4 5 5 13 9 9 10 9 8 6 6 5 3 4 2 5 6 12 17 8 9 4 3 0 0 0 0 1 0 1 1 0 0 0 0 0 0 0 0